sat.trackr.live / text

‹ back to catalog

CANX-2

NORAD 32790 · 2008-021H

PAYLOAD ACTIVE UNKNOWN

§ Identity

Operator
Country
CA
Launch date
2008-04-28
Launch site
SRILR
Launch vehicle
Mass (kg)
RCS (m²)
0.07

Purposes: tech_demo

External: N2YO · Heavens-Above · Gunter

§ Orbital elements

Epoch: 2026-05-24T21:26:05.116992Z

Period
95.65 min
Inclination
97.8623°
Eccentricity
0.0011640
Mean motion
15.05417624 rev/d
Perigee alt
542.2 km
Apogee alt
558.3 km
Semi-major
6,928.4 km
B*
2.8198e-4
RAAN
124.2235°
Arg perigee
119.1239°
Mean anomaly
241.1153°
Rev number
98,130

§ Raw data

CANX-21 32790U 08021H   26144.89311478  .00003987  00000+0  28198-3 0  99972 32790  97.8623 124.2235 0011640 119.1239 241.1153 15.05417624981308

JSON: /api/v1/satellites/32790 · /tle

For live sub-satellite position, see the globe view (requires WebGL).

§ Visibility from observer

Set your observer location to see the next 7 days of passes ≥ 10°. The values pass through the URL so the page stays shareable.

No JS? Fill the form by hand. The geolocation button needs JavaScript.